Starlink 30553

operational
NORAD ID: 58056 Int'l Des: 2023-158 Owner: SPXS Country: US Constellation: starlink
LEOCIRCULAR

Über Starlink 30553

Beschreibung wird geladen...

Live-Position

3D-Globus wird geladen...

Nächste Überflüge

Höhenverlauf

Altitude vs Time

uPlot chart will show altitude changes over time

Zweizeiliger Elementsatz

1 58056U 23158F 25308.26694382 .00000045 00000-0 18426-4 0 9995
2 58056 43.0045 351.9166 0001165 274.1025 85.9684 15.02532683114660
Epoch: 4. Nov. 2025 • Age: 10 hours

Aktueller Status

Höhe 559.3 km
Geschwindigkeit 7.59 km/s
Subsatellitenpunkt 24.23°N, 92.1°E
Startdatum 13. Okt. 2023
Alter 2 years
Typ internet

Technische Details

Klassifizierung Payload
Masse 730.00 kg
Trockenmasse 700.00 kg
Gesamtmasse 730.00 kg
Länge 0.30 m
Durchmesser 4.10 m
Spannweite 29.00 m
Form Box + pan
Hersteller SPXS
Bus-Typ Starlink V2M
Phasenstatus In Orbit
Besitzer/Staat SPXS/US

Große Konstellationen

Loading constellations...